TimeCDT,TemperatureF,Dew PointF,Humidity,Sea Level PressureIn,VisibilityMPH,Wind Direction,Wind SpeedMPH,Gust SpeedMPH,PrecipitationIn,Events,Conditions,WindDirDegrees,DateUTC
12:14 AM,59.0,57.2,94,29.94,10.0,WNW,4.6,-,N/A,,Clear,300,2013-07-25 05:14:00
12:35 AM,57.2,55.4,94,29.95,10.0,Calm,Calm,-,N/A,,Clear,0,2013-07-25 05:35:00
12:54 AM,57.2,55.4,94,29.94,10.0,West,3.5,-,N/A,,Clear,270,2013-07-25 05:54:00
1:14 AM,57.2,55.4,94,29.94,10.0,Calm,Calm,-,N/A,,Clear,0,2013-07-25 06:14:00
1:35 AM,57.2,55.4,94,29.94,10.0,Calm,Calm,-,N/A,,Clear,0,2013-07-25 06:35:00
1:54 AM,57.2,55.4,94,29.94,10.0,West,3.5,-,N/A,,Clear,270,2013-07-25 06:54:00
2:15 AM,57.2,55.4,94,29.94,10.0,Calm,Calm,-,N/A,,Clear,0,2013-07-25 07:15:00
2:35 AM,55.4,55.4,100,29.94,10.0,Calm,Calm,-,N/A,,Clear,0,2013-07-25 07:35:00
2:54 AM,55.4,55.4,100,29.95,10.0,NNW,3.5,-,N/A,,Clear,330,2013-07-25 07:54:00
3:14 AM,57.2,55.4,94,29.93,10.0,Calm,Calm,-,N/A,,Clear,0,2013-07-25 08:14:00
3:35 AM,57.2,55.4,94,29.93,10.0,Calm,Calm,-,N/A,,Clear,0,2013-07-25 08:35:00
3:54 AM,57.2,57.2,100,29.93,10.0,Calm,Calm,-,N/A,,Clear,0,2013-07-25 08:54:00
4:15 AM,59.0,57.2,94,29.93,10.0,Calm,Calm,-,N/A,,Clear,0,2013-07-25 09:15:00
4:35 AM,57.2,57.2,100,-9999,10.0,Calm,Calm,-,N/A,,Clear,0,2013-07-25 09:35:00
4:54 AM,59.0,57.2,94,29.92,10.0,Calm,Calm,-,N/A,,Clear,0,2013-07-25 09:54:00
5:15 AM,57.2,55.4,94,29.92,10.0,Calm,Calm,-,N/A,,Scattered Clouds,0,2013-07-25 10:15:00
5:35 AM,57.2,55.4,94,29.93,10.0,Calm,Calm,-,N/A,,Scattered Clouds,0,2013-07-25 10:35:00
5:54 AM,57.2,55.4,94,29.94,10.0,Calm,Calm,-,N/A,,Scattered Clouds,0,2013-07-25 10:54:00
6:15 AM,55.4,55.4,100,29.94,7.0,Calm,Calm,-,N/A,,Scattered Clouds,0,2013-07-25 11:15:00
6:34 AM,57.2,55.4,94,29.94,7.0,Calm,Calm,-,N/A,,Clear,0,2013-07-25 11:34:00
6:54 AM,57.2,57.2,100,29.93,7.0,Calm,Calm,-,N/A,,Clear,0,2013-07-25 11:54:00
7:15 AM,59.0,57.2,94,29.93,7.0,Calm,Calm,-,N/A,,Clear,0,2013-07-25 12:15:00
7:34 AM,60.8,59.0,94,29.95,7.0,West,3.5,-,N/A,,Clear,270,2013-07-25 12:34:00
7:54 AM,60.8,60.8,100,29.95,10.0,Calm,Calm,-,N/A,,Clear,0,2013-07-25 12:54:00
8:15 AM,62.6,60.8,94,29.95,10.0,Calm,Calm,-,N/A,,Clear,0,2013-07-25 13:15:00
8:34 AM,64.4,60.8,88,29.93,10.0,Calm,Calm,-,N/A,,Clear,0,2013-07-25 13:34:00
8:54 AM,64.4,60.8,88,29.94,10.0,Calm,Calm,-,N/A,,Clear,0,2013-07-25 13:54:00
9:15 AM,66.2,62.6,88,29.93,10.0,SW,4.6,-,N/A,,Scattered Clouds,230,2013-07-25 14:15:00
9:34 AM,66.2,60.8,83,29.93,10.0,SW,4.6,-,N/A,Thunderstorm,Clear,220,2013-07-25 14:34:00
9:55 AM,69.8,62.6,78,29.93,10.0,WSW,6.9,-,N/A,,Scattered Clouds,250,2013-07-25 14:55:00
10:14 AM,69.8,62.6,78,29.92,10.0,WSW,6.9,-,N/A,,Clear,240,2013-07-25 15:14:00
10:34 AM,71.6,62.6,73,29.92,10.0,West,9.2,-,N/A,,Clear,260,2013-07-25 15:34:00
10:55 AM,73.4,60.8,65,29.92,10.0,WNW,16.1,-,N/A,,Scattered Clouds,300,2013-07-25 15:55:00
11:14 AM,73.4,60.8,65,29.92,10.0,WNW,13.8,-,N/A,,Scattered Clouds,300,2013-07-25 16:14:00
11:34 AM,73.4,60.8,65,29.92,10.0,NW,13.8,-,N/A,,Scattered Clouds,310,2013-07-25 16:34:00
11:55 AM,75.2,60.8,61,29.92,10.0,West,11.5,-,N/A,,Scattered Clouds,280,2013-07-25 16:55:00
12:14 PM,75.2,60.8,61,29.91,10.0,WNW,10.4,-,N/A,,Scattered Clouds,290,2013-07-25 17:14:00
12:34 PM,77.0,59.0,54,29.90,10.0,WNW,13.8,-,N/A,,Scattered Clouds,290,2013-07-25 17:34:00
12:55 PM,75.2,57.2,53,29.90,10.0,WNW,15.0,-,N/A,,Scattered Clouds,290,2013-07-25 17:55:00
1:14 PM,75.2,59.0,57,29.89,10.0,WNW,15.0,19.6,N/A,,Scattered Clouds,290,2013-07-25 18:14:00
1:34 PM,77.0,57.2,50,29.89,10.0,NW,17.3,27.6,N/A,,Scattered Clouds,320,2013-07-25 18:34:00
1:55 PM,77.0,57.2,50,29.89,10.0,NW,20.7,24.2,N/A,,Scattered Clouds,310,2013-07-25 18:55:00
2:14 PM,78.8,55.4,44,29.89,10.0,WNW,20.7,25.3,N/A,,Clear,290,2013-07-25 19:14:00
2:35 PM,78.8,55.4,44,29.89,10.0,NW,19.6,25.3,N/A,,Scattered Clouds,310,2013-07-25 19:35:00
2:55 PM,75.2,55.4,50,29.89,10.0,NW,19.6,27.6,N/A,,Scattered Clouds,310,2013-07-25 19:55:00
3:14 PM,75.2,55.4,50,29.89,10.0,NW,18.4,26.5,N/A,,Scattered Clouds,310,2013-07-25 20:14:00
3:35 PM,75.2,51.8,44,29.89,10.0,WNW,18.4,27.6,N/A,,Clear,300,2013-07-25 20:35:00
3:55 PM,75.2,51.8,44,29.90,10.0,WNW,20.7,28.8,N/A,,Scattered Clouds,300,2013-07-25 20:55:00
4:14 PM,75.2,50.0,41,29.90,10.0,WNW,18.4,27.6,N/A,,Clear,300,2013-07-25 21:14:00
4:35 PM,75.2,48.2,38,29.90,10.0,WNW,24.2,28.8,N/A,,Clear,290,2013-07-25 21:35:00
4:55 PM,75.2,48.2,38,29.90,10.0,NW,21.9,29.9,N/A,,Scattered Clouds,320,2013-07-25 21:55:00
5:14 PM,75.2,48.2,38,29.90,10.0,NW,19.6,31.1,N/A,,Scattered Clouds,310,2013-07-25 22:14:00
5:35 PM,75.2,51.8,44,29.91,10.0,NNW,20.7,28.8,N/A,,Clear,330,2013-07-25 22:35:00
5:54 PM,75.2,53.6,47,29.91,10.0,NW,24.2,31.1,N/A,,Scattered Clouds,320,2013-07-25 22:54:00
6:14 PM,71.6,51.8,50,29.91,10.0,NW,25.3,28.8,N/A,,Mostly Cloudy,320,2013-07-25 23:14:00
6:35 PM,71.6,55.4,57,29.92,10.0,NNW,18.4,29.9,N/A,,Scattered Clouds,340,2013-07-25 23:35:00
6:54 PM,69.8,53.6,56,29.92,10.0,NNW,18.4,21.9,N/A,,Clear,330,2013-07-25 23:54:00
7:14 PM,69.8,53.6,56,29.93,10.0,NW,18.4,24.2,N/A,,Clear,320,2013-07-26 00:14:00
7:35 PM,68.0,53.6,60,29.93,10.0,NNW,17.3,25.3,N/A,,Scattered Clouds,330,2013-07-26 00:35:00
7:54 PM,68.0,53.6,60,29.94,10.0,NW,18.4,24.2,N/A,,Clear,320,2013-07-26 00:54:00
8:14 PM,66.2,53.6,64,29.94,10.0,NNW,13.8,-,N/A,,Clear,340,2013-07-26 01:14:00
8:35 PM,64.4,55.4,73,29.95,10.0,NNW,13.8,-,N/A,,Clear,330,2013-07-26 01:35:00
8:54 PM,64.4,55.4,73,29.95,10.0,NNW,10.4,-,N/A,,Scattered Clouds,330,2013-07-26 01:54:00
9:15 PM,62.6,55.4,77,29.95,10.0,NNW,11.5,17.3,N/A,,Scattered Clouds,340,2013-07-26 02:15:00
9:35 PM,60.8,55.4,82,29.95,10.0,NNW,10.4,-,N/A,,Scattered Clouds,340,2013-07-26 02:35:00
9:54 PM,59.0,55.4,88,29.96,10.0,NNW,10.4,-,N/A,,Clear,330,2013-07-26 02:54:00
10:15 PM,59.0,55.4,88,29.96,10.0,NNW,9.2,-,N/A,Thunderstorm,Clear,330,2013-07-26 03:15:00
10:34 PM,57.2,55.4,94,29.96,10.0,NNW,8.1,-,N/A,,Clear,330,2013-07-26 03:34:00
10:54 PM,57.2,55.4,94,29.96,10.0,NNW,10.4,-,N/A,,Clear,330,2013-07-26 03:54:00
11:15 PM,57.2,55.4,94,29.96,10.0,NNW,10.4,-,N/A,,Scattered Clouds,330,2013-07-26 04:15:00
11:34 PM,57.2,55.4,94,29.96,10.0,NNW,11.5,-,N/A,,Overcast,330,2013-07-26 04:34:00
11:54 PM,57.2,55.4,94,29.96,10.0,NNW,11.5,-,N/A,,Overcast,330,2013-07-26 04:54:00